Weather History for KBCB - March, 2014

Change the Weather History Date:

Monday, March 10, 2014

  Actual Average Record
Temperature  
Mean Temperature 51 °F 40 °F  
Max Temperature 68 °F 51 °F 75 °F (1974)
Min Temperature 34 °F 28 °F 4 °F (1996)
Degree Days  
Heating Degree Days 14 25  
Month to date heating degree days 267 265  
Since 1 July heating degree days 4448 4313  
Cooling Degree Days 0 0  
Month to date cooling degree days 0 0  
Year to date cooling degree days 0 0  
Growing Degree Days 2 (Base 50)    
Moisture  
Dew Point 32 °F    
Average Humidity 51    
Maximum Humidity 71    
Minimum Humidity 31    
Precipitation  
Precipitation 0.00 in 0.11 in 0.95 in (1978)
Month to date precipitation 1.01 1.05  
Year to date precipitation 6.64 6.94  
Snow  
Snow 0.00 in - - ()
Month to date snowfall 2.0  
Since 1 July snowfall 29.1  
Snow Depth 0.00 in    
Sea Level Pressure  
Sea Level Pressure 29.92 in    
Wind  
Wind Speed 7 mph (WSW)    
Max Wind Speed 16 mph    
Max Gust Speed 24 mph    
Visibility 10 miles    
Events      
T = Trace of Precipitation, MM = Missing Value Source: NWS Daily Summary

Daily Weather History Graph

Daily Weather History Graph

Search for Another Location

Airport or City:

Trip Planner

Search our weather history database for the weather conditions in past years. The results will help you decide how hot, cold, wet, or windy it might be!

Date:

Astronomy

Mar. 10, 2014 Rise Set
Actual Time 7:39 AM EDT 7:24 PM EDT
Civil Twilight 7:14 AM EDT 7:50 PM EDT
Nautical Twilight 6:43 AM EDT 8:20 PM EDT
Astronomical Twilight 6:13 AM EDT 8:50 PM EDT
Moon 2:11 PM EDT (3/10) 3:45 AM EDT (3/10)
Length of Visible Light 12h 36m
Length of Day
11h 44m
Waxing Gibbous, 70% of the Moon is Illuminated
Mar 10
Waxing Gibbous
Mar 16
Full
Mar 23
Last Quarter
Mar 30
New
Apr 7
First Quarter

Hourly Weather History & Observations

Time (EDT) Temp. Windchill Dew Point Humidity Pressure Visibility Wind Dir Wind Speed Gust Speed Precip Events Conditions
12:15 AM 39.2 °F - 28.4 °F 65% 30.03 in 10.0 mi Calm Calm - N/A   Clear
12:35 AM 37.4 °F 34.9 °F 26.6 °F 65% 30.03 in 10.0 mi SSW 3.5 mph - N/A   Clear
12:55 AM 42.8 °F 40.1 °F 26.6 °F 53% 30.03 in 10.0 mi SSW 4.6 mph - N/A   Clear
1:15 AM 42.8 °F 40.1 °F 26.6 °F 53% 30.02 in 10.0 mi SSW 4.6 mph - N/A   Clear
1:30 AM 44.6 °F 42.2 °F 26.6 °F 49% 30.02 in 10.0 mi SW 4.6 mph - N/A   Clear
1:55 AM 42.8 °F 40.1 °F 26.6 °F 53% 30.02 in 10.0 mi SW 4.6 mph - N/A   Clear
2:15 AM 44.6 °F 43.1 °F 26.6 °F 49% 30.02 in 10.0 mi SW 3.5 mph - N/A   Clear
2:35 AM 41.0 °F 39.0 °F 26.6 °F 57% 30.02 in 10.0 mi SW 3.5 mph - N/A   Clear
2:55 AM 39.2 °F 37.0 °F 26.6 °F 61% 30.01 in 10.0 mi SSW 3.5 mph - N/A   Clear
3:15 AM 39.2 °F 37.0 °F 26.6 °F 61% 30.00 in 10.0 mi SSW 3.5 mph - N/A   Clear
3:35 AM 39.2 °F 35.0 °F 26.6 °F 61% 30.00 in 10.0 mi SSW 5.8 mph - N/A   Clear
3:55 AM 41.0 °F 38.0 °F 26.6 °F 57% 29.98 in 10.0 mi SW 4.6 mph - N/A   Clear
4:15 AM 41.0 °F 39.0 °F 26.6 °F 57% 29.98 in 10.0 mi SW 3.5 mph - N/A   Clear
4:35 AM 41.0 °F 38.0 °F 26.6 °F 57% 29.98 in 10.0 mi SW 4.6 mph - N/A   Clear
4:55 AM 39.2 °F - 26.6 °F 61% 29.98 in 10.0 mi Calm Calm - N/A   Clear
5:15 AM 39.2 °F 37.0 °F 26.6 °F 61% 29.97 in 10.0 mi SW 3.5 mph - N/A   Clear
5:35 AM 39.2 °F 37.0 °F 26.6 °F 61% 29.97 in 10.0 mi WSW 3.5 mph - N/A   Clear
5:55 AM 39.2 °F 37.0 °F 26.6 °F 61% 29.97 in 10.0 mi West 3.5 mph - N/A   Clear
6:15 AM 44.6 °F 43.1 °F 26.6 °F 49% 29.98 in 10.0 mi WSW 3.5 mph - N/A   Clear
6:35 AM 41.0 °F - 26.6 °F 57% 29.98 in 10.0 mi Calm Calm - N/A   Clear
6:55 AM 41.0 °F 39.0 °F 24.8 °F 53% 29.98 in 10.0 mi WSW 3.5 mph - N/A   Clear
7:15 AM 41.0 °F - 26.6 °F 57% 29.98 in 10.0 mi Calm Calm - N/A   Clear
7:35 AM 41.0 °F 38.0 °F 26.6 °F 57% 29.97 in 10.0 mi West 4.6 mph - N/A   Clear
7:55 AM 41.0 °F 38.0 °F 26.6 °F 57% 29.97 in 10.0 mi WSW 4.6 mph - N/A   Clear
8:15 AM 42.8 °F 41.1 °F 24.8 °F 49% 29.97 in 10.0 mi West 3.5 mph - N/A   Clear
8:35 AM 44.6 °F 42.2 °F 24.8 °F 46% 29.98 in 10.0 mi WSW 4.6 mph - N/A   Clear
8:55 AM 46.4 °F 43.5 °F 24.8 °F 43% 29.97 in 10.0 mi WSW 5.8 mph - N/A   Clear
9:15 AM 48.2 °F - 24.8 °F 40% 29.97 in 10.0 mi WSW 8.1 mph - N/A   Clear
9:35 AM 50.0 °F - 24.8 °F 37% 29.97 in 10.0 mi West 10.4 mph - N/A   Clear
9:55 AM 51.8 °F - 24.8 °F 35% 29.96 in 10.0 mi West 8.1 mph 18.4 mph N/A   Clear
10:15 AM 53.6 °F - 24.8 °F 33% 29.95 in 10.0 mi West 9.2 mph 18.4 mph N/A   Clear
10:35 AM 53.6 °F - 23.0 °F 30% 29.95 in 10.0 mi WNW 11.5 mph 20.7 mph N/A   Clear
10:55 AM 55.4 °F - 26.6 °F 33% 29.95 in 10.0 mi WNW 12.7 mph 19.6 mph N/A   Clear
11:15 AM 55.4 °F - 28.4 °F 36% 29.95 in 10.0 mi WNW 11.5 mph 16.1 mph N/A   Clear
11:35 AM 57.2 °F - 26.6 °F 31% 29.94 in 10.0 mi WNW 13.8 mph 20.7 mph N/A   Clear
11:55 AM 57.2 °F - 28.4 °F 33% 29.93 in 10.0 mi West 16.1 mph 24.2 mph N/A   Clear
12:15 PM 59.0 °F - 30.2 °F 34% 29.92 in 10.0 mi West 15.0 mph 24.2 mph N/A   Clear
12:35 PM 59.0 °F - 28.4 °F 31% 29.92 in 10.0 mi West 9.2 mph 21.9 mph N/A   Clear
12:55 PM 60.8 °F - 30.2 °F 31% 29.92 in 10.0 mi West 12.7 mph 24.2 mph N/A   Clear
1:15 PM 60.8 °F - 30.2 °F 31% 29.91 in 10.0 mi West 12.7 mph 18.4 mph N/A   Clear
1:35 PM 62.6 °F - 32.0 °F 32% 29.90 in 10.0 mi West 11.5 mph 19.6 mph N/A   Clear
1:55 PM 62.6 °F - 33.8 °F 34% 29.89 in 10.0 mi WNW 9.2 mph 17.3 mph N/A   Clear
2:15 PM 64.4 °F - 33.8 °F 32% 29.87 in 10.0 mi West 11.5 mph 17.3 mph N/A   Clear
2:35 PM 66.2 °F - 33.8 °F 30% 29.86 in 10.0 mi West 9.2 mph 19.6 mph N/A   Clear
2:55 PM 64.4 °F - 33.8 °F 32% 29.84 in 10.0 mi WNW 8.1 mph 17.3 mph N/A   Clear
3:15 PM 62.6 °F - 33.8 °F 34% 29.85 in 10.0 mi West 8.1 mph 18.4 mph N/A   Clear
3:35 PM 66.2 °F - 35.6 °F 32% 29.84 in 10.0 mi West 9.2 mph 18.4 mph N/A   Clear
3:55 PM 66.2 °F - 35.6 °F 32% 29.84 in 10.0 mi West 9.2 mph 17.3 mph N/A   Clear
4:15 PM 66.2 °F - 35.6 °F 32% 29.84 in 10.0 mi WSW 9.2 mph 16.1 mph N/A   Clear
4:35 PM 66.2 °F - 35.6 °F 32% 29.84 in 10.0 mi WNW 11.5 mph 18.4 mph N/A   Clear
4:55 PM 66.2 °F - 35.6 °F 32% 29.83 in 10.0 mi West 9.2 mph 17.3 mph N/A   Clear
5:15 PM 66.2 °F - 35.6 °F 32% 29.82 in 10.0 mi West 10.4 mph 16.1 mph N/A   Clear
5:35 PM 66.2 °F - 35.6 °F 32% 29.83 in 7.0 mi West 6.9 mph - N/A   Clear
5:55 PM 66.2 °F - 35.6 °F 32% 29.82 in 10.0 mi WNW 11.5 mph 16.1 mph N/A   Clear
6:15 PM 64.4 °F - 33.8 °F 32% 29.82 in 10.0 mi West 5.8 mph - N/A   Clear
6:35 PM 62.6 °F - 37.4 °F 39% 29.82 in 10.0 mi WSW 4.6 mph - N/A   Clear
6:55 PM 62.6 °F - 37.4 °F 39% 29.83 in 10.0 mi West 6.9 mph - N/A   Clear
7:15 PM 60.8 °F - 37.4 °F 42% 29.83 in 10.0 mi West 3.5 mph - N/A   Clear
7:35 PM 59.0 °F - 37.4 °F 45% 29.83 in 10.0 mi West 5.8 mph - N/A   Clear
7:55 PM 57.2 °F - 37.4 °F 48% 29.84 in 10.0 mi Calm Calm - N/A   Clear
8:15 PM 57.2 °F - 35.6 °F 44% 29.83 in 10.0 mi SW 6.9 mph - N/A   Clear
8:35 PM 57.2 °F - 39.2 °F 51% 29.84 in 10.0 mi WSW 8.1 mph - N/A   Clear
8:55 PM 57.2 °F - 41.0 °F 55% 29.84 in 10.0 mi West 6.9 mph - N/A   Clear
9:15 PM 55.4 °F - 42.8 °F 63% 29.85 in 10.0 mi WSW 9.2 mph - N/A   Clear
9:35 PM 55.4 °F - 42.8 °F 63% 29.85 in 10.0 mi WSW 8.1 mph - N/A   Clear
9:55 PM 53.6 °F - 42.8 °F 67% 29.86 in 10.0 mi WSW 9.2 mph - N/A   Clear
10:15 PM 53.6 °F - 42.8 °F 67% 29.85 in 10.0 mi WSW 8.1 mph - N/A   Clear
10:35 PM 53.6 °F - 42.8 °F 67% 29.85 in 10.0 mi West 5.8 mph - N/A   Clear
10:55 PM 53.6 °F - 42.8 °F 67% 29.85 in 10.0 mi WSW 6.9 mph - N/A   Clear
11:15 PM 53.6 °F - 42.8 °F 67% 29.85 in 10.0 mi WSW 8.1 mph - N/A   Clear
11:35 PM 53.6 °F - 42.8 °F 67% 29.85 in 10.0 mi WSW 8.1 mph - N/A   Clear
11:55 PM 51.8 °F - 42.8 °F 71% 29.84 in 10.0 mi WSW 6.9 mph - N/A   Clear